Theta_e
300 291 286 288 294 289 286 287 285 288 293 293 291 292 297 298 297 297 298 298 298 300 303 304 305 307 308 310 318 321 322 324 323 321 323 324 323 325 326 327 328 328 328 327
296 289 290 291 293 292 288 287 286 289 293 292 289 289 293 295 295 298 298 297 298 299 301 303 304 305 306 307 312 318 321 323 323 323 323 324 325 326 327 328 327 327 327 327
290 289 294 291 291 290 290 286 286 285 290 290 288 285 288 291 293 294 296 298 298 299 300 301 302 303 305 305 307 313 318 322 323 323 323 321 320 319 322 324 325 325 326 326
291 295 291 289 288 291 284 291 289 288 286 281 286 278 282 283 286 292 294 295 296 297 299 300 302 304 305 305 306 307 311 317 321 322 321 319 319 318 321 322 324 325 324 325
288 289 289 288 289 293 287 293 291 289 286 286 284 281 282 285 285 288 292 294 296 297 299 301 302 303 303 304 303 304 305 309 317 319 320 320 318 320 321 320 320 322 322 323
292 293 293 291 292 295 294 291 290 288 286 280 282 282 282 284 285 289 293 294 295 297 298 299 300 300 300 302 304 305 305 307 311 317 317 318 318 318 318 317 317 318 319 319
289 290 291 293 288 292 291 286 278 278 278 276 282 281 284 285 288 290 292 295 297 296 296 296 297 298 299 298 299 303 305 304 311 316 317 316 317 317 317 317 317 317 317 317
283 281 289 292 289 288 289 286 277 271 273 277 282 279 284 290 292 293 294 294 295 295 296 297 298 296 296 297 298 299 300 300 301 303 309 317 316 317 317 318 318 318 318 319
284 284 288 291 292 292 289 285 287 279 273 274 279 282 288 290 289 291 292 294 293 294 295 294 294 295 295 295 296 296 297 298 298 299 300 301 303 309 316 318 319 320 320 320
283 280 286 290 293 292 291 292 283 283 272 272 276 278 282 285 287 289 290 291 292 291 291 292 293 293 294 294 294 295 295 295 296 297 298 298 299 300 302 305 309 313 318 320
290 284 282 288 287 287 288 286 287 286 282 276 272 278 285 287 288 290 290 291 290 290 291 291 291 292 292 293 293 293 294 294 294 295 296 296 297 298 299 299 300 301 304 307
292 286 281 284 288 293 291 288 288 282 279 282 278 280 287 288 288 290 291 289 289 290 290 291 291 292 292 292 292 292 292 293 293 294 294 295 295 295 295 296 297 298 299 302
290 284 280 281 283 287 288 289 289 288 284 281 279 279 288 290 289 289 290 289 290 290 290 291 291 291 291 291 292 291 291 291 292 293 293 293 292 293 293 294 294 295 296 297
286 285 282 277 281 284 285 286 288 287 282 282 282 283 286 286 287 288 289 290 291 291 291 291 291 290 290 290 290 289 289 290 290 291 291 291 290 290 291 292 292 293 294 294
287 282 283 284 284 284 285 286 287 286 287 283 285 283 288 290 289 288 290 290 291 291 291 290 289 288 288 288 287 287 287 287 288 288 288 288 288 288 289 289 290 292 293 293
287 282 283 280 284 284 283 285 286 287 287 287 287 284 291 293 290 289 289 290 291 290 289 288 287 288 286 285 284 284 284 285 285 285 284 285 285 285 286 288 289 290 291 292
281 282 281 278 282 281 278 283 284 285 288 288 283 289 293 287 288 290 290 290 291 289 286 285 285 284 282 280 281 280 281 282 282 281 281 281 282 283 284 286 287 287 288 290
281 279 279 278 277 272 281 285 286 285 288 289 290 290 292 293 287 285 284 291 290 285 282 281 281 280 278 278 277 278 279 279 278 278 278 279 280 279 281 284 285 285 287 287
285 280 276 276 276 276 280 281 281 282 283 289 289 291 292 285 285 282 279 281 281 278 278 277 277 277 276 275 275 276 276 276 275 275 275 276 277 277 278 281 283 284 285 285
285 284 279 278 274 272 276 277 275 278 279 275 276 278 282 286 284 286 276 276 275 275 274 274 275 275 275 273 273 275 274 273 272 273 273 275 276 275 276 278 282 283 283 284
279 281 277 276 274 274 270 272 276 278 275 272 273 275 277 283 277 274 274 272 274 274 273 273 273 273 272 272 272 272 272 270 271 272 273 273 274 274 276 278 280 281 282 282
278 275 274 276 274 270 268 274 275 272 271 271 271 273 273 274 273 273 272 271 271 270 270 270 271 271 271 270 270 269 269 269 269 270 270 270 272 273 275 275 276 279 280 281
274 269 268 267 266 267 268 268 269 271 269 269 269 271 271 270 269 269 269 269 268 268 268 268 268 268 268 267 267 266 266 267 267 266 267 268 270 272 272 272 273 274 278 279
268 266 268 267 265 264 266 268 268 268 268 268 268 268 269 266 268 268 267 266 266 266 265 266 266 265 265 265 265 264 264 265 264 264 266 267 268 268 269 270 271 273 276 276
262 264 264 264 264 264 264 265 266 266 267 267 266 265 265 266 265 266 264 264 264 264 264 264 263 263 263 263 262 262 263 263 263 264 264 265 266 266 266 268 269 272 272 273
261 259 262 262 263 263 262 264 265 264 264 265 264 264 264 264 263 263 263 263 262 262 262 262 262 261 261 261 261 261 261 262 261 261 262 263 263 263 265 266 266 270 271 275
Wind_Speed
6 5 14 10 11 1 5 5 6 3 3 4 8 11 18 8 6 10 12 10 10 12 10 10 10 10 8 6 8 10 8 11 8 6 7 9 11 11 9 11 14 13 13 13
7 23 7 9 8 7 2 4 4 3 3 5 2 11 17 11 10 17 17 12 13 11 10 12 9 7 8 9 7 8 10 7 9 8 6 6 6 8 10 9 12 14 14 13
16 4 18 10 9 12 13 6 3 2 2 2 5 11 8 9 6 8 11 14 10 15 13 11 9 7 5 8 8 5 8 9 10 12 7 3 1 0 4 8 9 11 14 14
15 19 8 5 16 15 13 10 6 3 4 5 2 14 8 4 7 5 9 9 12 10 10 10 7 8 5 4 4 6 7 9 10 10 9 12 10 10 9 9 7 8 13 14
12 11 13 12 12 15 6 9 13 7 5 2 6 4 4 2 5 5 7 9 9 10 10 10 8 5 6 4 5 5 6 7 7 7 11 9 11 9 8 4 7 8 8 12
23 2 17 14 9 18 7 7 5 3 5 9 9 10 22 11 9 6 6 8 8 8 7 7 5 4 5 5 4 3 4 5 5 7 10 12 12 10 7 5 5 5 6 7
11 10 2 7 8 7 7 8 4 5 7 12 10 7 26 4 4 4 9 9 7 7 5 4 4 2 3 5 5 4 5 5 5 2 6 9 11 10 10 9 6 7 6 6
15 12 19 6 11 10 18 14 7 10 8 7 7 13 15 6 13 14 9 9 5 4 3 4 4 5 5 5 5 5 5 6 6 6 6 2 6 5 6 7 7 6 7 8
9 10 2 9 8 17 11 16 12 4 2 2 6 8 10 7 7 6 11 13 3 1 3 6 5 5 6 5 5 5 5 6 8 8 7 7 7 7 5 7 6 6 7 7
2 3 6 19 6 11 14 13 10 9 8 10 6 5 13 1 8 8 7 8 5 6 7 6 5 5 4 5 4 5 6 7 7 8 8 6 7 7 7 7 8 8 8 8
15 4 3 11 17 21 7 11 5 4 7 8 3 10 8 13 9 8 9 9 8 8 7 6 5 4 5 4 4 5 6 7 7 7 8 8 8 8 6 6 8 8 9 9
13 7 16 15 4 23 25 19 18 9 13 7 1 12 3 8 8 7 8 8 7 7 6 7 7 6 5 5 5 6 6 7 7 6 5 7 8 9 9 8 9 10 10 10
15 8 9 8 2 2 15 19 19 19 2 16 10 7 6 5 5 6 8 7 6 7 8 6 5 4 5 4 5 5 5 6 6 6 5 6 7 8 9 9 10 10 11 11
21 25 16 9 2 3 15 17 20 21 13 13 12 14 14 5 8 8 7 11 14 8 8 6 5 4 5 5 6 7 10 9 8 8 8 9 9 10 9 11 11 10 10 11
6 15 20 23 9 2 5 19 25 23 25 16 21 17 20 17 15 7 12 10 10 11 9 6 5 5 5 6 5 4 4 5 6 6 6 8 9 9 9 9 10 11 11 10
7 12 15 18 19 23 25 8 15 21 23 20 20 10 19 21 6 7 10 12 12 10 8 7 7 5 5 4 3 4 5 8 9 8 8 9 9 8 8 9 10 10 10 10
6 10 12 15 16 18 17 20 18 18 21 21 20 25 23 6 7 11 12 16 15 11 8 8 6 5 4 5 6 5 7 7 7 8 9 8 8 9 9 10 10 11 11 11
6 10 12 13 5 20 8 4 17 25 21 18 19 15 18 18 4 4 3 10 10 13 10 8 6 6 5 5 6 7 7 8 8 8 9 11 11 12 11 10 11 12 11 12
16 7 11 10 12 2 4 5 2 10 27 23 18 23 26 6 5 1 6 8 9 9 10 8 6 5 5 7 8 7 7 7 7 8 8 9 10 10 9 9 9 11 11 11
14 18 16 2 9 9 4 2 5 8 15 5 7 7 6 13 7 8 7 11 13 12 9 8 6 7 8 9 10 7 8 8 10 12 13 12 11 11 12 12 12 11 11 11
3 4 13 5 3 6 8 14 7 8 4 7 8 8 6 5 4 12 13 13 12 11 11 8 8 8 9 11 11 9 8 10 11 12 12 11 11 11 10 11 10 10 10 10
4 3 2 4 2 11 15 2 3 5 9 8 10 11 13 13 12 12 12 12 12 12 12 12 9 9 9 12 10 10 9 11 11 11 12 12 11 10 9 12 11 11 10 10
3 2 3 3 3 8 11 11 12 12 10 10 10 11 11 12 12 12 11 11 12 13 11 11 10 8 8 10 10 11 11 12 12 12 11 10 11 10 11 10 11 10 9 9
3 6 3 4 6 7 10 12 13 13 11 11 13 12 12 12 11 11 10 11 11 11 11 10 11 11 10 10 10 9 11 12 11 11 12 11 11 12 10 8 8 8 8 8
2 6 3 6 7 7 12 12 10 10 10 10 12 15 14 12 11 10 9 10 10 9 9 9 10 9 10 9 9 9 10 11 11 11 11 11 9 11 11 9 8 8 10 11
6 5 2 2 5 6 7 7 9 7 8 9 11 12 12 11 10 9 8 8 8 7 8 8 8 9 11 10 9 8 8 10 10 10 9 9 9 9 9 9 10 14 18 20
Wind_Direction
187 191 215 190 205 92 151 170 189 181 244 182 227 250 256 230 232 251 246 249 255 249 254 247 251 247 246 230 234 227 211 217 192 187 198 223 225 223 222 225 223 213 214 209
180 229 168 160 185 212 161 188 222 263 230 193 233 257 266 233 224 223 240 240 240 248 263 260 247 244 235 244 231 220 223 207 204 207 204 204 197 221 221 220 218 215 214 211
210 272 168 165 177 204 222 196 144 167 9 180 298 270 215 261 205 206 225 233 235 238 242 256 263 245 248 240 244 236 231 226 215 218 213 202 154 199 206 221 219 217 214 212
231 224 157 184 204 183 217 192 147 129 67 243 50 280 209 211 253 226 237 221 235 246 248 251 256 273 242 272 248 253 253 240 231 209 212 209 215 223 226 228 218 215 208 217
211 163 182 202 202 185 228 150 183 162 180 15 228 281 246 143 268 259 254 251 246 238 242 260 253 277 302 286 259 262 265 256 247 205 212 213 222 232 242 225 216 213 208 214
221 222 184 192 160 181 138 87 71 100 139 237 228 204 273 236 213 212 223 229 244 252 242 253 288 295 306 341 332 307 272 281 269 222 213 216 222 228 234 230 219 217 209 206
213 208 231 151 148 165 160 138 151 207 210 238 160 173 248 297 117 189 227 236 241 232 250 273 287 307 86 50 32 40 54 34 5 277 228 220 228 228 228 235 230 224 221 217
203 203 203 177 184 172 194 182 165 201 204 236 155 221 245 225 221 253 203 245 258 270 238 231 177 131 100 75 44 49 52 47 25 34 26 340 239 241 240 238 236 233 233 232
192 226 196 185 179 157 183 209 197 113 126 71 208 280 297 223 238 252 215 243 287 334 125 127 119 116 106 77 49 38 40 36 29 22 17 24 24 12 322 291 268 259 253 248
240 270 204 195 161 208 178 165 188 210 191 220 245 255 237 221 242 237 258 251 171 158 128 129 116 113 85 86 76 64 54 50 30 24 22 22 16 18 6 355 346 326 303 284
227 209 224 155 200 193 162 190 210 190 200 203 228 241 187 225 221 215 222 220 183 158 155 140 118 100 97 88 66 55 45 42 37 27 13 14 11 7 17 15 353 342 329 324
208 223 224 208 227 211 199 195 191 196 200 212 231 248 185 228 227 203 203 179 164 164 165 154 151 138 109 83 62 50 38 34 16 3 19 18 7 360 0 7 359 346 338 329
198 219 228 171 244 268 219 209 201 225 77 203 210 233 179 179 155 210 182 171 180 169 159 165 145 131 114 89 61 50 34 30 16 0 360 34 12 4 356 347 350 348 340 336
321 233 246 231 240 146 203 206 205 205 222 221 225 246 252 225 216 215 191 178 186 175 175 165 147 118 78 57 51 36 17 359 6 6 3 8 6 353 353 341 345 344 337 334
243 232 231 243 232 264 277 215 212 215 220 221 223 216 245 243 227 191 206 183 159 185 176 159 132 92 66 51 29 28 24 341 352 18 20 0 351 343 344 340 340 339 342 335
217 254 230 246 245 249 250 236 236 211 223 232 246 234 229 254 145 193 198 183 190 177 156 130 105 89 64 45 21 360 18 14 8 6 6 4 341 345 341 339 335 331 335 334
274 277 228 235 231 247 256 228 214 225 225 217 226 231 244 245 205 206 201 196 191 158 138 123 106 95 65 19 10 360 20 14 13 11 4 351 336 341 344 339 331 330 327 326
240 278 291 237 203 238 223 223 221 226 230 228 231 245 245 238 198 94 353 187 162 144 132 120 107 88 51 20 360 4 20 17 12 8 357 347 347 340 331 335 332 330 327 319
210 209 262 222 224 211 285 290 261 201 241 228 220 230 239 96 85 33 32 54 100 100 100 94 79 78 63 28 5 9 23 17 8 360 344 341 337 326 325 310 309 316 322 326
209 216 220 202 211 221 222 142 12 320 255 21 357 346 360 151 199 213 102 88 82 80 67 68 60 60 46 23 5 13 16 11 2 349 343 342 337 328 320 310 319 323 320 312
149 232 201 199 205 271 14 320 312 197 256 29 31 8 275 202 49 96 94 76 73 71 60 47 48 54 34 24 1 4 7 8 347 336 331 326 318 309 298 304 313 310 309 303
176 190 242 137 155 255 356 277 244 5 40 41 36 33 72 84 81 77 75 72 60 50 38 32 32 33 31 24 359 358 360 344 332 329 321 315 314 317 324 325 315 310 308 308
177 350 175 49 77 55 34 39 30 40 50 40 50 45 58 69 63 59 55 51 45 36 29 18 22 2 28 18 6 354 339 335 331 327 318 315 318 322 327 321 316 315 310 310
73 13 69 141 68 65 44 44 36 29 42 41 43 46 58 60 48 55 46 35 31 27 24 6 8 359 2 2 356 340 333 334 329 321 327 326 326 322 319 316 309 303 309 313
335 316 35 77 135 127 56 35 35 30 31 51 57 52 43 53 47 49 44 32 28 16 15 5 6 336 341 337 333 332 334 334 331 330 329 327 318 316 318 313 305 306 308 300
2 24 303 100 22 75 70 28 36 39 41 51 56 58 52 43 44 35 38 25 14 6 2 357 339 330 331 337 325 318 322 332 331 327 324 320 318 319 315 312 307 300 303 300